Regional Weather Roundup
Issued by NWS Upton, NY

Current Version | Previous Version | Graphics & Text | Print | Product List | Glossary Off
Versions: 1 2 3 4 5 6 7 8 9 10 11 12 13 14 15 16 17 18 19 20 21 22 23 24 25 26 27 28 29 30 31 32 33 34 35 36 37 38 39 40 41 42 43 44 45 46 47

000
ASUS41 KOKX 271108
RWROKX

REGIONAL WEATHER ROUNDUP
NATIONAL WEATHER SERVICE NEW YORK NY
700 AM EDT MON APR 27 2015

NOTE: "FAIR" INDICATES FEW OR NO CLOUDS BELOW 12,000 FEET WITH NO
SIGNIFICANT WEATHER AND/OR OBSTRUCTIONS TO VISIBILITY.

NYZ071-072-176-178-NJZ106-104-271200-
NEW YORK CITY METRO AREA


CITY           SKY/WX    TMP DP  RH WIND       PRES   REMARKS
CENTRAL PARK   CLOUDY    49  31  49 NW6       29.69S
LAGUARDIA APRT CLOUDY    49  32  52 NW8       29.67R
KENNEDY INTL   PTSUNNY   50  30  46 NW13      29.67S
NEWARK/LIBERTY CLOUDY    49  32  52 NW8       29.68R
BRNX BOT. GARD   N/A     46  32  57 NW7       29.68R
TETERBORO      CLOUDY    48  32  53 NW10      29.67R
$$

NYZ177-179-078>081-271200-
LONG ISLAND NEW YORK

CITY           SKY/WX    TMP DP  RH WIND       PRES   REMARKS
FARMINGDALE    CLOUDY    49  32  52 NW7       29.66R
ISLIP          PTSUNNY   49  33  54 NW10      29.63S
SHIRLEY        CLOUDY    49  34  56 NW7       29.65R
WESTHAMPTON    CLOUDY    47  35  63 NW8       29.65R
MONTAUK POINT    N/A     48  37  65 W6        29.64R
$$

NYZ052-065-067-271200-
HUDSON VALLEY

CITY           SKY/WX    TMP DP  RH WIND       PRES   REMARKS
WHITE PLAINS   PTSUNNY   47  31  53 NW10      29.65R
NEWBURGH       PTSUNNY   45  36  70 W7        29.68R
MONTGOMERY     CLOUDY    47  33  58 CALM      29.67R
POUGHKEEPSIE   CLOUDY    46  36  68 CALM      29.67S
ALBANY         PTSUNNY   45  34  65 NW3       29.69R
$$

NJZ001-105-106-008-010-013-015-019>022-104-271200-
NEW JERSEY

CITY           SKY/WX    TMP DP  RH WIND       PRES   REMARKS
NEWARK/LIBERTY CLOUDY    49  32  52 NW8       29.68R
TETERBORO      CLOUDY    48  32  53 NW10      29.67R
CALDWELL       CLOUDY    46  32  58 VRB3      29.69R
MORRISTOWN     CLOUDY    46  32  57 N8        29.69R
SOMERVILLE     CLOUDY    44  34  67 CALM      29.68R
SUSSEX         CLOUDY    46  31  55 VRB3      29.70R
ANDOVER          N/A     45  32  60 N5        29.70R
TRENTON        CLOUDY    47  30  51 N7        29.70R
MILLVILLE      CLOUDY    45  36  70 W6        29.72R
ATLANTIC CITY  CLEAR     43  32  65 NW7       29.71R
WRIGHTSTOWN    CLOUDY    45  32  60 NW6       29.68R
TOMS RIVER     CLOUDY    43  32  65 NW7       29.70R
BELMAR         CLOUDY    45  28  53 W8        29.68R
$$

PAZ047>061-062-071-271200-
EASTERN PENNSYLVANIA

CITY           SKY/WX    TMP DP  RH WIND       PRES   REMARKS
PHILADELPHIA   MOCLDY    49  30  48 NW9       29.73R
ALLENTOWN      CLOUDY    47  33  58 NW7       29.72R
SCRANTON       CLOUDY    44  32  62 CALM      29.72R
$$

CTZ002-004>006-009-010-012-RIZ004-006-007-MAZ004-011-015-271200-
SOUTHERN NEW ENGLAND
 IN CT

CITY           SKY/WX    TMP DP  RH WIND       PRES   REMARKS
BRADLEY INTL   PTSUNNY   48  33  56 NW6       29.63S
HARTFORD       MOSUNNY   49  33  54 VRB7      29.64S
DANBURY        CLOUDY    46  31  55 NW8       29.67R
WTRBRY/OXFORD  CLOUDY    45  30  57 N5        29.66R
BRIDGEPORT     CLOUDY    50  34  54 N7        29.65R
MERIDEN        CLOUDY    49  33  54 CALM      29.65R
NEW HAVEN      PTSUNNY   49  33  54 NW7       29.64R
CHESTER        CLOUDY    46  32  57 N7        29.63S
GROTON         CLOUDY    49  33  54 NW7       29.62R
WILLIMANTIC    PTSUNNY   49  33  54 NW5       29.63R

 IN RI

CITY           SKY/WX    TMP DP  RH WIND       PRES   REMARKS
PROVIDENCE     PTSUNNY   49  32  52 NW6       29.61R
BLOCK ISLAND   CLOUDY    48  34  57 NW6       29.62R
WESTERLY       CLOUDY    49  33  54 VRB3      29.62S

 IN MA

CITY           SKY/WX    TMP DP  RH WIND       PRES   REMARKS
BOSTON         CLOUDY    49  34  56 NW9       29.61R
WORCESTER      CLOUDY    44  32  62 NW9       29.60R
WESTFIELD      CLOUDY    45  34  65 VRB3      29.63S
PROVINCETOWN   CLOUDY   N/A N/A N/A NW8       29.59S
NANTUCKET      MOSUNNY   50  39  66 NW8       29.59R
$$

ANZ330-335-338-340-345-350-353-355-271200-
COASTAL MARINE OBSERVATIONS


STATION/POSITION TIME  SKY/WX   TEMP    WIND        PRES    VSBY  WAVE
                                AIR SEA DIR/SP/G                  HT/PER
                 (UTC)          (F)     (DEG/KT/KT) (MB)    (MI)  (FT/S)
NY HARB ENTRANCE 1050            47 45  300/ 10/ 12 1004.1          2/10
4S FIRE IS       1003               45                N/A           2/10
20S FIRE ISLAND  1050            45 44  280/  8/  8 1004.2          2/ 9
23SW MTP         1050            46 43  310/  8/ 10 1003.1          2/ 9
HUDSON CANYON    NOT AVBL
EXECUTION ROCKS  NOT AVBL
WESTERN LI SOUND NOT AVBL
CENTRAL LI SOUND NOT AVBL
EASTERN LI SOUND 1000            47     300/  4/  6   N/A
ROBBINS REEF     1000            48     330/  6/  9 1003.5
$$


>>>>>>>>>>>>>>>>>>>>>>>>>>>> KEY <<<<<<<<<<<<<<<<<<<<<<<<<<<
>                                                          <
>     SKY/WX - SKY CONDITION/PRESENT WEATHER               <
>     TMP    - TEMPERATURE IN FAHRENHEIT                   <
>     DP     - DEWPOINT IN FAHRENHEIT                      <
>     RH     - RELATIVE HUMIDITY IN PERCENT                <
>     WIND   - DIRECTION AND SPEED IN MPH                  <
>     PRES   - MEAN SEA LEVEL PRESSURE IN INCHES OF HG     <
>     WCI    - WIND CHILL INDEX                            <
>     VSB    - VISIBILITY IN MILES                         <
>     HX     - HEAT INDEX                                  <
>     TC     - TEMPERATURE IN CELSIUS                      <
>     VRB    - VARIABLE WIND DIRECTION                     <
>                                                          <
>>>>>>>>>>>>>>>>>>>>>>>>>>>> KEY <<<<<<<<<<<<<<<<<<<<<<<<<<<




USA.gov is the U.S. government's official web portal to all federal, state and local government web resources and services.